Seattle, WA

8:16 AM PST on December 13, 2019 (GMT -0800)
Seattle-Tacoma International

Weather History for KSEA - November, 2019

Change the Weather History Date:

Saturday, November 16, 2019

  Actual Average Record
Temperature  
Mean Temperature 51 °F 45 °F  
Max Temperature 54 °F 51 °F 68 °F (1965)
Min Temperature 47 °F 40 °F 21 °F (1955)
Degree Days  
Heating Degree Days 14 20  
Month to date heating degree days 241 288  
Since 1 July heating degree days 776 885  
Cooling Degree Days 0 0  
Month to date cooling degree days 0 0  
Year to date cooling degree days 323 189  
Moisture  
Dew Point 45 °F    
Average Humidity 79    
Maximum Humidity 89    
Minimum Humidity 68    
Precipitation  
Precipitation 0.01 in 0.23 in 1.08 in (1988)
Month to date precipitation 0.77 3.42  
Year to date precipitation 24.98 28.99  
Snow  
Snow 0.00 in - T in (1994)
Month to date snowfall 0.0  
Since 1 July snowfall 0.0  
Snow Depth 0.00 in    
Sea Level Pressure  
Sea Level Pressure 30.29 in    
Wind  
Wind Speed 6 mph (SSE)    
Max Wind Speed 12 mph    
Max Gust Speed 16 mph    
Visibility 10 miles    
Events Rain    
T = Trace of Precipitation, MM = Missing Value Source: NWS Daily Summary

Daily Weather History Graph

Daily Weather History Graph

Search for Another Location

Airport or City:

Astronomy

Nov. 16, 2019 Rise Set
Actual Time 7:15 AM PST 4:32 PM PST
Civil Twilight 6:41 AM PST 5:05 PM PST
Nautical Twilight 6:04 AM PST 5:43 PM PST
Astronomical Twilight 5:28 AM PST 6:19 PM PST
Moon 8:03 PM PST (11/16) 11:21 AM PST (11/16)
Length of Visible Light 10h 24m
Length of Day
9h 17m
Waning Gibbous, 81% of the Moon is Illuminated
Nov 16
Waning Gibbous
Nov 19
Last Quarter
Nov 26
New
Dec 3
First Quarter
Dec 11
Full

Hourly Weather History & Observations

Time (PST) Temp. Dew Point Humidity Pressure Visibility Wind Dir Wind Speed Gust Speed Precip Events Conditions
12:22 AM 52.0 °F 46.9 °F 83% 30.29 in 10.0 mi SSE 3.5 mph - N/A   Overcast
12:45 AM 52.0 °F 46.9 °F 83% 30.30 in 10.0 mi SSE 6.9 mph - N/A   Overcast
12:53 AM 52.0 °F 46.9 °F 83% 30.32 in 10.0 mi SSE 4.6 mph - N/A   Overcast
1:21 AM 51.1 °F 46.9 °F 86% 30.29 in 10.0 mi South 5.8 mph - N/A   Overcast
1:34 AM 51.1 °F 46.9 °F 86% 30.29 in 10.0 mi SE 6.9 mph - N/A   Overcast
1:53 AM 51.1 °F 46.0 °F 83% 30.32 in 10.0 mi SE 8.1 mph - N/A   Overcast
2:53 AM 51.1 °F 46.0 °F 83% 30.34 in 10.0 mi South 5.8 mph - N/A   Overcast
3:12 AM 50.0 °F 46.9 °F 89% 30.31 in 10.0 mi South 6.9 mph - N/A   Overcast
3:53 AM 50.0 °F 46.9 °F 89% 30.33 in 7.0 mi SSW 6.9 mph - 0.00 in Rain Light Rain
4:53 AM 48.9 °F 46.0 °F 90% 30.34 in 10.0 mi South 5.8 mph - 0.00 in   Mostly Cloudy
5:00 AM 48.9 °F 46.0 °F 90% 30.31 in 10.0 mi South 4.6 mph - N/A   Overcast
5:04 AM 48.9 °F 46.0 °F 90% 30.31 in 10.0 mi South 4.6 mph - N/A   Mostly Cloudy
5:32 AM 48.0 °F 44.1 °F 86% 30.31 in 10.0 mi SE 8.1 mph - N/A   Mostly Cloudy
5:53 AM 48.9 °F 43.0 °F 80% 30.33 in 10.0 mi SE 9.2 mph - N/A   Mostly Cloudy
6:53 AM 48.9 °F 43.0 °F 80% 30.34 in 10.0 mi SSE 4.6 mph - N/A   Scattered Clouds
7:06 AM 48.2 °F 42.8 °F 82% 30.31 in 10.0 mi SSE 4.6 mph - N/A   Mostly Cloudy
7:25 AM 46.9 °F 42.1 °F 83% 30.32 in 10.0 mi SSE 5.8 mph - N/A   Mostly Cloudy
7:53 AM 48.0 °F 43.0 °F 83% 30.35 in 10.0 mi SSE 4.6 mph - N/A   Mostly Cloudy
8:53 AM 48.9 °F 44.1 °F 83% 30.34 in 10.0 mi SSE 4.6 mph - N/A   Overcast
9:53 AM 51.1 °F 41.0 °F 68% 30.33 in 10.0 mi SE 8.1 mph - N/A   Overcast
10:53 AM 51.1 °F 42.1 °F 71% 30.32 in 10.0 mi SE 9.2 mph - N/A   Overcast
11:53 AM 52.0 °F 44.1 °F 74% 30.30 in 10.0 mi SSE 6.9 mph - N/A   Overcast
12:53 PM 52.0 °F 43.0 °F 71% 30.29 in 10.0 mi SSW 6.9 mph - N/A   Overcast
1:53 PM 51.1 °F 44.1 °F 77% 30.27 in 10.0 mi South 5.8 mph - N/A   Overcast
2:53 PM 51.1 °F 45.0 °F 80% 30.27 in 10.0 mi South 3.5 mph - 0.00 in   Overcast
3:53 PM 52.0 °F 46.0 °F 80% 30.27 in 10.0 mi SE 6.9 mph - 0.01 in Rain Light Rain
4:53 PM 53.1 °F 45.0 °F 74% 30.26 in 10.0 mi SE 8.1 mph - 0.00 in Rain Light Rain
5:53 PM 53.1 °F 45.0 °F 74% 30.27 in 10.0 mi SSE 9.2 mph - 0.00 in   Overcast
6:53 PM 53.1 °F 46.0 °F 77% 30.26 in 10.0 mi SSE 8.1 mph - N/A   Overcast
7:53 PM 52.0 °F 46.0 °F 80% 30.24 in 10.0 mi South 3.5 mph - N/A   Overcast
8:53 PM 52.0 °F 46.9 °F 83% 30.24 in 10.0 mi Calm Calm - N/A   Overcast
9:53 PM 52.0 °F 48.0 °F 86% 30.23 in 10.0 mi South 5.8 mph - N/A   Overcast
10:53 PM 51.1 °F 48.0 °F 89% 30.21 in 10.0 mi South 5.8 mph - N/A   Overcast
11:53 PM 51.1 °F 46.9 °F 86% 30.18 in 10.0 mi SSE 4.6 mph - N/A   Overcast